BEIDOU-3 M21

Last updated on Wed Dec 17 2025 00:02:38 GMT+0000 (Coordinated Universal Time)

1 44794U 19078B 25349.58158639 -.00000099 00000+0 00000+0 0 9998 2 44794 54.0788 306.2509 0003999 11.1298 348.8661 1.86227547 41237
UTC large
Height (km)
Speed (km/s)
/
Latitude / Longitude
Inclination (degrees)
Orbital Period (minutes)
Azimuth
Elevation
Range (km)
Doppler Factor

Next 0 passes for location: London (51.5072 / 0.1276)

Sorry there are no passes over London.